Погода в Рудне

Чехия     50°02′01″N   14°13′53″E
темп.,
°C
ветер,
м/с
пор.,
м/с
влажн.,
%
обл.,
%
осадки,
мм/ч
давл.,
гПа
погр.,
м
9 мая, вс
вс923:00+7ююв2360100 0.0 101837
02:00+5ю226627 0.0 101723
05:00+5ю227466 0.0 101617
08:00+9ююв226677 0.0 1016156
11:00+17ю355298 0.0 1014624
14:00+22ююв554262 0.0 10131303
17:00+22юв675699 0.0 1011776
20:00+15юв51175100 0.0 1011337
10 мая, пн
пн1023:00+10вюв368576 0.0 1012132
02:00+9в3588100 0.0 1011112
05:00+8вюв229019 0.0 101141
08:00+11ююв237868 0.0 1011317
11:00+18ю3461100 0.0 1010740
14:00+22юв33521 0.0 10101121
17:00+23юв44586 0.0 10091041
20:00+17вюв367910 0.0 1010114
11 мая, вт
вт1123:00+14в2390100 0.0 100956
02:00+12в2493100 0.0 100882
05:00+11в359690 0.0 1006111
08:00+14ю248442 0.0 1007416
11:00+19вюв216815 0.0 1006729
14:00+22ююв125958 0.0 10051299
17:00+23с1259100 0.1 1003664
20:00+19св2280100 0.8 100326
12 мая, ср
ср1223:00+16ссв238995 0.3 100367
02:00+14зюз3597100 0.3 1003171
05:00+14з3695100 0.1 1004417
08:00+13зсз3590100 0.1 1005390
11:00+13ссз3391100 0.0 1005452
14:00+14сз3490100 0.9 1004479
17:00+13сз4693100 1.1 1003539
20:00+11сз5997100 3.2 1003506
13 мая, чт
чт1323:00+10ссз3898100 2.5 1003523
02:00+9зсз3698100 8.9 1002415
05:00+9сз4797100 1.8 1001435
08:00+9сз3697100 3.3 1001350
11:00+9зсз2598100 3.6 1001369
14:00+9зсз3698100 8.3 1002363
17:00+9з4797100 1.9 1003413
20:00+9з4897100 4.3 1004406